User: anonymous   Login
Location: Unspecified
(0.0000°N, 0.0000°E)
Time: 11:55:18
(UTC+00:00)
Language:

M-CUBED/EXP-1 PRIME - Orbit

View from above orbital plane
View from above orbital plane
View from above satellite
View from above satellite

Ground track
Ground track

The orbit data is extracted from the following two-line orbital elements,

1 37855U 11061F   18175.92220153 +.00001863 +00000-0 +10219-3 0  9997
2 37855 101.7158 242.4119 0176453 059.4160 302.4327 15.04485147362345
Epoch (UTC): 24 June 2018 22:07:58
Eccentricity: 0.0176453
inclination: 101.7158°
perigee height: 431 km
apogee height: 675 km
right ascension of ascending node: 242.4119°
argument of perigee: 59.4160°
revolutions per day: 15.04485147
mean anomaly at epoch: 302.4327°
orbit number at epoch: 36234

The dashed part of the orbit path shows where the satellite is in the earth's shadow,  

DLR